Flag for Vietnam Weather past 2 weeks in Hanoi, Vietnam

Now
68 °F

Broken clouds.


Feels Like: 68 °F
Forecast: 68 / 78 °F
Wind: 8 mph from East

Location: Ha Noi Airport

Current Time: Mar 4, 2015 at 2:25:22 PM

Latest Report: Mar 4, 2015 at 1:30 PM


Visibility: 4 mi

Pressure: 29.86 "Hg

Humidity: 73%

Dew point: 59 °F

Location of HanoiLocation

Historic Weather in Hanoi — Graph

°F

Hanoi temperature yesterday

Maximum temperature yesterday: 77 °F (at 11:30 AM)
Minimum temperature yesterday: 68 °F (at 12:00 AM)
Average temperature yesterday: 71 °F

Past Weeks' High & Low Weather Summary

 TemperatureHumidityPressure
High84 °F (Feb 24, 1:30 PM)100% (Feb 22, 8:30 AM)30.12 "Hg (Feb 22, 8:30 AM)
Low63 °F (Mar 2, 4:00 AM)54% (Mar 3, 3:30 PM)29.71 "Hg (Feb 24, 4:00 PM)
Average73 °F82%29.89 "Hg
* Reported Feb 17 1:00 PM — Mar 4 1:00 PM, Hanoi, Weather by CustomWeather, © 2015

Note: Actual official high and low records may vary slightly from our data, if they occured in-between our weather recording intervals... More about our weather records

Advertising

Hanoi weather history for previous 24 hours

 ConditionsComfort  
Time TempWeatherWind HumidityBarometerVisibility
1:00 PM
Wed, Mar 4
68 °FBroken clouds.8 mph73%29.89 "Hg4 mi
12:30 PM68 °FBroken clouds.7 mph73%29.92 "Hg4 mi
12:00 PM68 °FBroken clouds.8 mph73%29.92 "Hg4 mi
11:30 AM66 °FBroken clouds.7 mph78%29.95 "Hg3 mi
10:30 AM66 °FDrizzle. Broken clouds.8 mph78%29.98 "Hg3 mi
10:00 AM64 °FBroken clouds.8 mph88%29.98 "Hg4 mi
9:30 AM64 °FDrizzle. Fog.8 mph88%29.98 "Hg2 mi
9:00 AM64 °FDrizzle. Fog.10 mph88%29.98 "Hg2 mi
8:30 AM64 °FDrizzle. Broken clouds.9 mph88%29.95 "Hg4 mi
8:00 AM64 °FBroken clouds.8 mph88%29.95 "Hg4 mi
7:30 AM64 °FBroken clouds.7 mph83%29.92 "Hg4 mi
7:00 AM66 °FDrizzle. Broken clouds.9 mph78%29.92 "Hg4 mi
6:30 AM66 °FBroken clouds.9 mph73%29.89 "Hg6 mi
6:00 AM66 °FPartly cloudy.9 mph73%29.86 "Hg6 mi
5:30 AM66 °FPartly cloudy.13 mph73%29.86 "Hg5 mi
5:00 AM68 °FPartly cloudy.6 mph69%29.83 "HgN/A
4:30 AM68 °FPartly cloudy.6 mph69%29.83 "Hg5 mi
4:00 AM68 °FPartly cloudy.8 mph69%29.83 "Hg6 mi
3:30 AM68 °FPartly cloudy.8 mph64%29.83 "HgN/A
3:00 AM68 °FPartly cloudy.9 mph60%29.83 "HgN/A
2:30 AM68 °FPartly cloudy.9 mph64%29.83 "HgN/A
2:00 AM68 °FPartly cloudy.8 mph60%29.83 "HgN/A
1:30 AM68 °FPartly cloudy.8 mph60%29.83 "HgN/A
1:00 AM68 °FClear.7 mph64%29.83 "Hg10 mi
12:30 AM68 °FPassing clouds.8 mph60%29.86 "HgN/A
12:00 AM68 °FPartly cloudy.8 mph64%29.86 "HgN/A
11:30 PM
Tue, Mar 3
70 °FPartly cloudy.8 mph57%29.86 "HgN/A
11:00 PM70 °FPartly cloudy.9 mph57%29.86 "HgN/A
10:30 PM70 °FPassing clouds.9 mph57%29.86 "HgN/A
10:00 PM70 °FPassing clouds.10 mph57%29.86 "HgN/A
9:30 PM70 °FPassing clouds.9 mph57%29.86 "HgN/A
9:00 PM70 °FPassing clouds.10 mph60%29.86 "HgN/A
8:30 PM70 °FPassing clouds.12 mph60%29.83 "HgN/A
8:00 PM70 °FPassing clouds.12 mph60%29.83 "HgN/A
7:30 PM72 °FPassing clouds.9 mph61%29.83 "HgN/A
7:00 PM72 °FPassing clouds.10 mph61%29.80 "HgN/A
6:30 PM72 °FPassing clouds.14 mph61%29.80 "HgN/A
6:00 PM73 °FPartly sunny.13 mph57%29.77 "HgN/A
5:30 PM73 °FPartly sunny.14 mph57%29.77 "HgN/A
5:00 PM75 °FPartly sunny.14 mph54%29.77 "HgN/A
4:30 PM75 °FPartly sunny.14 mph54%29.77 "HgN/A
4:00 PM75 °FPartly sunny.15 mph54%29.77 "HgN/A
3:30 PM77 °FSunny.15 mph54%29.77 "Hg10 mi
3:00 PM75 °FScattered clouds.17 mph57%29.77 "HgN/A
2:30 PM75 °FBroken clouds.16 mph61%29.77 "HgN/A
2:00 PM75 °FBroken clouds.15 mph65%29.80 "HgN/A
Weather by CustomWeather, © 2015

See weather overviewHow to use our weather pages